OK1ZDJ-13 Weather Reports


time (UTC)temp
C
wind
direction
speed
KPH
gust
KPH
rain 1hr
cm
rain 24hr
cm
rain mn
cm
humidity
%
barometer
mb
20260505040805 14 0.0 0.0 0.00 0.00 0.00 52 1009.8
20260505035805 14 0.0 0.0 0.00 0.00 0.00 54 1009.8
20260505034805 14 0.0 0.0 0.00 0.00 0.00 55 1009.8
20260505033810 14 0.0 0.0 0.00 0.00 0.00 58 1009.8
20260505032804 15 0.0 0.0 0.00 0.00 0.00 59 1010.1
20260505031804 14 0.0 0.0 0.00 0.00 0.00 58 1010.1
20260505030804 14 0.0 0.0 0.00 0.00 0.00 62 1010.2
20260505025804 14 0.0 0.0 0.00 0.00 0.00 65 1010.8
20260505024804 13 0.0 0.0 0.00 0.00 0.00 64 1011.2
20260505023804 13 0.0 0.0 0.00 0.00 0.00 65 1011.3
20260505022804 13 0.0 0.0 0.00 0.00 0.00 68 1011.0
20260505020804 14 0.0 0.0 0.00 0.00 0.00 64 1010.9
20260505014804 14 0.0 0.0 0.00 0.00 0.00 65 1011.0
20260505011804 14 0.0 0.0 0.00 0.00 0.00 69 1011.7
20260505010804 14 0.0 0.0 0.00 0.00 0.00 68 1011.9
20260505005804 13 0.0 0.0 0.00 0.00 0.00 68 1011.9
20260505004804 13 0.0 0.0 0.00 0.00 0.00 70 1012.2
20260505003804 13 0.0 0.0 0.00 0.00 0.00 70 1012.3
20260505002804 13 0.0 0.0 0.00 0.00 0.00 70 1012.6
20260505001804 13 0.0 0.0 0.00 0.00 0.00 71 1012.5
20260505000805 13 0.0 0.0 0.00 0.00 0.00 70 1012.5
20260504235804 13 0.0 0.0 0.00 0.00 0.00 71 1012.8
20260504233804 13 0.0 0.0 0.00 0.00 0.00 71 1012.9
20260504232804 13 0.0 0.0 0.00 0.00 0.00 71 1012.6
20260504231804 13 0.0 0.0 0.00 0.00 0.00 70 1012.5
20260504230804 13 0.0 0.0 0.00 0.00 0.00 71 1012.5
20260504225804 13 0.0 0.0 0.00 0.00 0.00 71 1012.4
20260504224804 13 0.0 0.0 0.00 0.00 0.00 71 1012.4
20260504223804 13 0.0 0.0 0.00 0.00 0.00 72 1012.5
20260504222804 13 0.0 0.0 0.00 0.00 0.00 69 1012.6
20260504220804 13 0.0 0.0 0.00 0.00 0.00 69 1012.6
20260504215804 14 0.0 0.0 0.00 0.00 0.00 67 1012.7
20260504214805 14 0.0 0.0 0.00 0.00 0.00 66 1012.8
20260504213809 15 0.0 0.0 0.00 0.00 0.00 66 1012.9
20260504212802 15 0.0 0.0 0.00 0.00 0.00 67 1013.0
20260504210802 15 0.0 0.0 0.00 0.00 0.00 66 1013.1
20260504205803 15 0.0 0.0 0.00 0.00 0.00 65 1013.2
20260504204803 15 0.0 0.0 0.00 0.00 0.00 67 1013.1
20260504203803 15 0.0 0.0 0.00 0.00 0.00 66 1013.2
20260504202803 15 0.0 0.0 0.00 0.00 0.00 67 1013.1
20260504200803 15 0.0 0.0 0.00 0.00 0.00 64 1013.0
20260504195803 15 0.0 0.0 0.00 0.00 0.00 62 1012.9
20260504194805 16 0.0 0.0 0.00 0.00 0.00 61 1012.8
20260504192803 16 0.0 0.0 0.00 0.00 0.00 58 1012.8
20260504191803 17 0.0 0.0 0.00 0.00 0.00 57 1012.9
20260504190803 17 0.0 0.0 0.00 0.00 0.00 57 1012.9
20260504185802 18 0.0 0.0 0.00 0.00 0.00 57 1012.9
20260504184803 18 0.0 0.0 0.00 0.00 0.00 56 1012.9
20260504183803 18 0.0 0.0 0.00 0.00 0.00 53 1012.8
20260504182804 19 0.0 0.0 0.00 0.00 0.00 52 1012.8
20260504181803 19 0.0 0.0 0.00 0.00 0.00 52 1012.8
20260504180803 20 0.0 0.0 0.00 0.00 0.00 51 1012.8
20260504175802 20 0.0 0.0 0.00 0.00 0.00 49 1012.8
20260504174803 21 0.0 0.0 0.00 0.00 0.00 48 1012.8
20260504173802 22 0.0 0.0 0.00 0.00 0.00 45 1012.7
20260504172802 22 0.0 0.0 0.00 0.00 0.00 43 1012.6
20260504171802 23 0.0 0.0 0.00 0.00 0.00 40 1012.8
20260504170802 23 0.0 0.0 0.00 0.00 0.00 40 1012.7
20260504150801 25 0.0 0.0 0.00 0.00 0.00 29 1013.1
20260504130801 23 0.0 0.0 0.00 0.00 0.00 32 1014.1
20260504081759 18 0.0 0.0 0.00 0.00 0.00 42 1016.2
20260504080759 18 0.0 0.0 0.00 0.00 0.00 41 1016.1
20260504045759 11 0.0 0.0 0.00 0.00 0.00 66 1015.7
20260504044759 10 0.0 0.0 0.00 0.00 0.00 69 1015.5
20260504043759 10 0.0 0.0 0.00 0.00 0.00 67 1015.3
20260504042759 9 0.0 0.0 0.00 0.00 0.00 69 1015.3
20260504041759 8 0.0 0.0 0.00 0.00 0.00 70 1015.5